Regional Weather Roundup
Issued by NWS

Home | Current Version | Previous Version | Text Only | Print | Product List | Glossary Off
Versions: 1 2 3 4 5 6 7 8 9 10 11 12 13 14 15 16 17 18 19 20 21 22 23 24 25 26 27 28 29 30 31 32 33 34 35 36 37 38 39 40 41 42 43 44 45 46 47 48 49 50

000
ASUS43 KMPX 211610
RWRMN
WEATHER ROUNDUP FOR MINNESOTA
NATIONAL WEATHER SERVICE TWIN CITIES/CHANHASSEN MN
1000 AM CST TUE FEB 21 2017


NOTE: "FAIR" INDICATES FEW OR NO CLOUDS BELOW 12,000 FEET WITH NO
SIGNIFICANT WEATHER AND/OR OBSTRUCTIONS TO VISIBILITY. N/A MEANS
CURRENT SKY AND/OR WEATHER CONDITIONS ARE NOT AVAILABLE.

MNZ060>063-068>070-211700-
   Twin Cities Metro

CITY           SKY/WX    TMP DP  RH WIND       PRES   REMARKS
TWIN CITIES    MOSUNNY   37  36  96 S3        29.89S
ST PAUL        FOG       34  34 100 SE7       29.91S VSB 1/4 WCI  28
CRYSTAL        MOSUNNY  N/A N/A N/A E7        29.85F HAZE
BLAINE         FOG       39  39 100 S7        29.87F VSB 1/2
LAKEVILLE      SUNNY     39  39 100 S5        29.89S
EDEN PRAIRIE   SUNNY     39  38  96 S7        29.87S
SOUTH ST PAUL  FOG       35  35 100 CALM      29.90R VSB<1/4
LAKE ELMO      FOG       36  36 100 S5        29.90S VSB 1/4
$$
MNZ001>005-007-008-013>017-022>024-027-028-211700-
   Northwest Minnesota

CITY           SKY/WX    TMP DP  RH WIND       PRES   REMARKS
BEMIDJI        MOSUNNY   33  33 100 E6        29.74S FOG     WCI  28
HALLOCK        SUNNY     36  34  93 E6        29.70S FOG
ROSEAU         FOG       32  28  86 CALM      29.72F VSB 1/4
WARROAD        CLOUDY    32  28  86 CALM      29.73F FOG
THIEF RVR FALL SUNNY     37  34  89 SE10      29.70F FOG
CROOKSTON      SUNNY     37  36  93 SE7       29.70F FOG
FOSSTON        SUNNY     39  37  93 E3        29.71F
DETROIT LAKES  MOSUNNY   41  36  81 S13       29.70F
MOORHEAD       MOSUNNY   37  34  87 S9        29.70S
PARK RAPIDS    SUNNY     36  32  85 SE10      29.73F
MAHNOMEN       FAIR      41  35  79 SE7       29.70S
$$
MNZ006-009>011-018-025>026-211700-
   North Central Minnesota

CITY           SKY/WX    TMP DP  RH WIND       PRES   REMARKS
BAUDETTE       CLOUDY    33  31  92 CALM      29.73F
FLAG ISLAND    FOG       30  30 100 S6        29.73F VSB 3/4 WCI  24
INTL FALLS     CLOUDY    34  32  92 SW3       29.75F FOG
WASKISH        CLOUDY    36  36 100 SE5       29.74F FOG
BIG FORK       CLOUDY    36  34  93 S3        29.76F FOG
LONGVILLE      CLOUDY    37  37 100 SE5       29.77R
GRAND RAPIDS   CLOUDY    35  33  92 S7        29.81R FOG     WCI  29
CRANE LAKE     CLOUDY    34  32  93 CALM      29.80S
ORR            CLOUDY    34  30  86 CALM      29.75F
COOK           CLOUDY    34  34 100 SW5       29.78F FOG     WCI  30
WALKER         PTSUNNY   35  32  90 CALM      29.75S FOG
$$
MNZ012-019>021-037-211700-
   Northeast Minnesota

CITY           SKY/WX    TMP DP  RH WIND       PRES   REMARKS
DULUTH         FOG       34  34 100 SW7       29.81R VSB 1/2 WCI  28
ELY            CLOUDY    34  32  93 W6        29.78S WCI  29
HIBBING        CLOUDY    33  33 100 S6        29.79S FOG     WCI  28
EVELETH        CLOUDY    35  34  96 SW3       29.79S FOG
DULUTH HARBOR  CLOUDY    36  34  93 CALM      29.84S
TWO HARBORS    CLOUDY    39  36  87 W5        29.78S
SILVER BAY     SUNNY     41  36  81 SW5       29.77S
GRAND MARAIS     N/A     39  34  82 SW15      29.77S
G MARAIS ARPRT SUNNY     36  28  75 W12       29.73S
$$
MNZ029>031-032-039>041-046>048-054>057-064-211700-
   West Central Minnesota

CITY           SKY/WX    TMP DP  RH WIND       PRES   REMARKS
FERGUS FALLS   MOSUNNY   43  36  75 S10       29.74F
WHEATON        MOSUNNY   43  36  75 S6        29.74S
MORRIS         SUNNY     41  37  87 S12       29.73S
ALEXANDRIA     SUNNY     46  36  68 S15       29.74F
ELBOW LAKE     FAIR      43  38  83 S13       29.73R
WADENA         SUNNY     39  36  87 SE8       29.74F
GLENWOOD       SUNNY     45  37  76 S17       29.75F
APPLETON       SUNNY     45  37  76 S8        29.73F
BENSON         SUNNY     46  36  66 S14       29.76F
ORTONVILLE     SUNNY     46  37  71 CALM      29.72F
WILLMAR        FAIR      45  39  81 SE10      29.79F
$$
MNZ033>034-036-042>043-049>051-058-059-211700-
   Central Minnesota

CITY           SKY/WX    TMP DP  RH WIND       PRES   REMARKS
ST CLOUD       MOSUNNY   35  35 100 SE8       29.81F FOG     WCI  29
SAUK CENTRE    FAIR      41  35  78 SE13      29.76F
PAYNESVILLE    SUNNY     43  37  79 S10       29.79F
AITKIN         CLOUDY    37  34  87 SE7       29.80S FOG
PINE RIVER     CLOUDY    32  32 100 SE7       29.81F FOG     WCI  26
BRAINERD       PTSUNNY   34  34 100 S8        29.80F FOG     WCI  27
STAPLES        SUNNY     37  37 100 E5        29.77S
LONG PRAIRIE   FAIR      41  34  75 SE13      29.76F
LITTLE FALLS   SUNNY     34  32  93 E3        29.80F FOG
LITCHFIELD     SUNNY     46  39  76 S5        29.82F
BUFFALO        SUNNY     40  38  95 SE3       29.84F
MAPLE LAKE     SUNNY     41  41 100 S6        29.83F
HUTCHINSON     SUNNY     44  39  82 SE6       29.84F
$$
MNZ037-044-045-052-053-211700-
   East Central Minnesota

CITY           SKY/WX    TMP DP  RH WIND       PRES   REMARKS
PRINCETON      CLOUDY    37  36  93 SE6       29.85S FOG
MORA           FOG       32  32 100 CALM      29.87F VSB 1/4
CAMBRIDGE      FOG       36  36 100 SE5       29.84F VSB 1/4
RUSH CITY      FOG       34  32  93 S7        29.87F VSB<1/4 WCI  28
MOOSE LAKE     FOG       32  32 100 S6        29.83S VSB 1/2 WCI  26
HINCKLEY       FOG       34  34 100 S5        29.86F VSB<1/4 WCI  30
CLOQUET        FOG       34  34 100 S7        29.82S VSB 1/2 WCI  28
MCGREGOR       CLOUDY    34  34 100 S8        29.82S WCI  27
$$
MNZ071>073-080-081-089-090-097-098-211700-
   Southwest Minnesota

CITY           SKY/WX    TMP DP  RH WIND       PRES   REMARKS
MONTEVIDEO     SUNNY     48  46  93 SW14      29.76F
GRANITE FALLS  SUNNY     49  42  76 S14       29.78F
CANBY          SUNNY     50  36  57 SW17G26   29.75F
MARSHALL       SUNNY     52  38  58 SW25G33   29.76F
REDWOOD FALLS  SUNNY     46  38  73 S14       29.80F
OLIVIA         SUNNY     45  37  76 S12       29.79F
PIPESTONE      SUNNY     46  36  66 SW17G23   29.80F
WINDOM         SUNNY     48  37  66 S20G25    29.84F
WORTHINGTON    SUNNY     49  39  68 S21G30    29.84F
JACKSON        SUNNY     45  37  76 S12       29.87F
TRACY          SUNNY     51  40  67 SW20G28   29.81S
SLAYTON        SUNNY     48  39  70 S24       29.82F
$$
MNZ065>067-074>077-082>085-091>093-211700-
   South Central Minnesota

CITY           SKY/WX    TMP DP  RH WIND       PRES   REMARKS
MANKATO          N/A     43  39  86 S7        29.88F
NEW ULM        SUNNY     45  39  81 S12       29.84F
ST JAMES       SUNNY     46  43  87 S10       29.86F
FAIRMONT       SUNNY     48  41  76 S12       29.88F
GLENCOE        SUNNY     45  41  86 S5        29.84F
FARIBAULT      SUNNY     45  41  87 S8        29.90S
OWATONNA       SUNNY     45  37  76 S8        29.89F
WASECA         SUNNY     41  41 100 S12       29.91S
ALBERT LEA     SUNNY     45  45 100 S8        29.91S
$$
MNZ078>079-086>088-094>096-211700-
   Southeast Minnesota

CITY           SKY/WX    TMP DP  RH WIND       PRES   REMARKS
ROCHESTER      SUNNY     41  41 100 S8        29.92R
RED WING       FOG       36  34  93 SE3       29.91S VSB<1/4
STANTON        SUNNY     45  40  83 S5        29.88F
DODGE CENTER   MOSUNNY   43  43 100 S9        29.91R
WINONA         SUNNY     41  37  87 CALM      29.94S
AUSTIN         SUNNY     43  39  87 SW9       29.92F FOG
PRESTON        MOSUNNY   38  37  97 SW7       29.93S FOG
$$
ABBREVIATIONS USED IN REMARKS
   TC - TEMPERATURES IN CELSIUS
  WCI - WIND CHILL INDEX
   HX - HEAT INDEX
  VSB - VISIBILITY
$$




USA.gov is the U.S. government's official web portal to all federal, state and local government web resources and services.